Time,TemperatureF,DewpointF,PressureIn,WindDirection,WindDirectionDegrees,WindSpeedMPH,WindSpeedGustMPH,Humidity,HourlyPrecipIn,Conditions,Clouds,dailyrainin,SoftwareType,DateUTC
2013-06-05 00:00:00,56.5,40.0,30.10,SW,219,0.0,0.0,54,0.00,,,0.00,VWS V14.01,2013-06-05 04:00:00,
2013-06-05 00:01:00,56.1,39.7,30.10,SW,219,0.0,0.0,54,0.00,,,0.00,VWS V14.01,2013-06-05 04:01:00,
2013-06-05 00:02:00,56.1,39.7,30.10,SW,219,0.0,0.0,54,0.00,,,0.00,VWS V14.01,2013-06-05 04:02:00,
2013-06-05 00:05:00,56.1,39.7,30.10,SW,219,0.0,0.0,54,0.00,,,0.00,VWS V14.01,2013-06-05 04:05:00,
2013-06-05 00:07:00,55.8,39.8,30.10,SW,219,0.0,0.0,55,0.00,,,0.00,VWS V14.01,2013-06-05 04:07:00,
2013-06-05 00:10:00,55.9,40.0,30.10,SW,219,0.0,0.0,55,0.00,,,0.00,VWS V14.01,2013-06-05 04:10:00,
2013-06-05 00:12:00,55.6,39.7,30.10,WSW,250,0.0,2.7,55,0.00,,,0.00,VWS V14.01,2013-06-05 04:12:00,
2013-06-05 00:15:00,55.8,39.8,30.10,SSW,206,0.0,0.0,55,0.00,,,0.00,VWS V14.01,2013-06-05 04:15:00,
2013-06-05 00:17:00,55.6,39.7,30.10,WSW,250,0.0,0.0,55,0.00,,,0.00,VWS V14.01,2013-06-05 04:17:00,
2013-06-05 00:20:00,55.6,39.7,30.10,WSW,250,0.0,2.7,55,0.00,,,0.00,VWS V14.01,2013-06-05 04:20:00,
2013-06-05 00:22:00,55.6,39.7,30.10,WSW,250,0.0,0.0,55,0.00,,,0.00,VWS V14.01,2013-06-05 04:22:00,
2013-06-05 00:25:00,55.4,39.5,30.10,WSW,250,0.0,0.0,55,0.00,,,0.00,VWS V14.01,2013-06-05 04:25:00,
2013-06-05 00:27:00,55.4,39.5,30.10,WSW,248,0.0,0.0,55,0.00,,,0.00,VWS V14.01,2013-06-05 04:27:00,
2013-06-05 00:30:00,55.4,39.5,30.10,WSW,248,0.0,2.2,55,0.00,,,0.00,VWS V14.01,2013-06-05 04:30:00,
2013-06-05 00:33:00,55.0,39.7,30.10,WSW,248,0.0,0.0,56,0.00,,,0.00,VWS V14.01,2013-06-05 04:33:00,
2013-06-05 00:35:00,55.0,39.7,30.10,WSW,248,0.0,0.0,56,0.00,,,0.00,VWS V14.01,2013-06-05 04:35:00,
2013-06-05 00:38:00,55.0,40.1,30.10,WSW,248,0.0,0.0,57,0.00,,,0.00,VWS V14.01,2013-06-05 04:38:00,
2013-06-05 00:40:00,55.0,39.7,30.10,WSW,248,0.0,0.0,56,0.00,,,0.00,VWS V14.01,2013-06-05 04:40:00,
2013-06-05 00:43:00,55.0,40.1,30.10,SSW,207,2.2,2.7,57,0.00,,,0.00,VWS V14.01,2013-06-05 04:43:00,
2013-06-05 00:45:00,55.0,40.1,30.10,SSW,207,2.7,3.1,57,0.00,,,0.00,VWS V14.01,2013-06-05 04:45:00,
2013-06-05 00:48:00,55.0,40.1,30.10,SSW,203,0.0,0.0,57,0.00,,,0.00,VWS V14.01,2013-06-05 04:48:00,
2013-06-05 00:50:00,55.0,40.1,30.10,SSW,203,0.0,3.1,57,0.00,,,0.00,VWS V14.01,2013-06-05 04:50:00,
2013-06-05 00:53:00,54.9,39.9,30.10,SSW,203,0.0,0.0,57,0.00,,,0.00,VWS V14.01,2013-06-05 04:53:00,
2013-06-05 00:55:00,54.9,39.9,30.10,SSW,203,0.0,0.0,57,0.00,,,0.00,VWS V14.01,2013-06-05 04:55:00,
2013-06-05 00:58:00,54.9,39.9,30.10,SSW,203,0.0,0.0,57,0.00,,,0.00,VWS V14.01,2013-06-05 04:58:00,
2013-06-05 01:00:00,54.9,39.5,30.10,SSW,203,0.0,0.0,56,0.00,,,0.00,VWS V14.01,2013-06-05 05:00:00,
2013-06-05 01:03:00,54.9,39.5,30.10,SSW,203,0.0,0.0,56,0.00,,,0.00,VWS V14.01,2013-06-05 05:03:00,
2013-06-05 01:05:00,54.9,39.5,30.10,SSW,203,0.0,0.0,56,0.00,,,0.00,VWS V14.01,2013-06-05 05:05:00,
2013-06-05 01:08:00,54.9,39.5,30.10,SSW,202,0.0,0.0,56,0.00,,,0.00,VWS V14.01,2013-06-05 05:08:00,
2013-06-05 01:10:00,54.9,39.5,30.10,SSW,202,0.0,0.0,56,0.00,,,0.00,VWS V14.01,2013-06-05 05:10:00,
2013-06-05 01:13:00,54.7,39.3,30.10,SSW,202,0.0,0.0,56,0.00,,,0.00,VWS V14.01,2013-06-05 05:13:00,
2013-06-05 01:15:00,54.9,39.5,30.10,SSW,202,0.0,0.0,56,0.00,,,0.00,VWS V14.01,2013-06-05 05:15:00,
2013-06-05 01:18:00,54.7,39.3,30.10,SSW,202,0.0,0.0,56,0.00,,,0.00,VWS V14.01,2013-06-05 05:18:00,
2013-06-05 01:20:00,54.7,39.3,30.10,SSW,202,0.0,0.0,56,0.00,,,0.00,VWS V14.01,2013-06-05 05:20:00,
2013-06-05 01:23:00,54.7,39.3,30.10,SSW,202,0.0,0.0,56,0.00,,,0.00,VWS V14.01,2013-06-05 05:23:00,
2013-06-05 01:25:00,54.7,39.3,30.10,SSW,202,0.0,0.0,56,0.00,,,0.00,VWS V14.01,2013-06-05 05:25:00,
2013-06-05 01:28:00,54.5,39.1,30.10,SSW,202,0.0,0.0,56,0.00,,,0.00,VWS V14.01,2013-06-05 05:28:00,
2013-06-05 01:30:00,54.5,39.1,30.10,SSW,202,0.0,0.0,56,0.00,,,0.00,VWS V14.01,2013-06-05 05:30:00,
2013-06-05 01:33:00,54.5,38.7,30.10,SSW,202,0.0,0.0,55,0.00,,,0.00,VWS V14.01,2013-06-05 05:33:00,
2013-06-05 01:35:00,54.5,38.7,30.10,SSW,202,0.0,0.0,55,0.00,,,0.00,VWS V14.01,2013-06-05 05:35:00,
2013-06-05 01:38:00,54.5,38.2,30.10,SSW,202,0.0,0.0,54,0.00,,,0.00,VWS V14.01,2013-06-05 05:38:00,
2013-06-05 01:40:00,54.5,38.2,30.10,SSW,202,0.0,0.0,54,0.00,,,0.00,VWS V14.01,2013-06-05 05:40:00,
2013-06-05 01:43:00,54.3,38.0,30.10,SSW,202,0.0,0.0,54,0.00,,,0.00,VWS V14.01,2013-06-05 05:43:00,
2013-06-05 01:45:00,54.3,38.0,30.10,SSW,202,0.0,0.0,54,0.00,,,0.00,VWS V14.01,2013-06-05 05:45:00,
2013-06-05 01:48:00,54.3,37.6,30.10,SSW,202,0.0,0.0,53,0.00,,,0.00,VWS V14.01,2013-06-05 05:48:00,
2013-06-05 01:50:00,54.3,37.6,30.10,SSW,202,0.0,0.0,53,0.00,,,0.00,VWS V14.01,2013-06-05 05:50:00,
2013-06-05 01:53:00,54.0,37.2,30.10,SSW,202,0.0,0.0,53,0.00,,,0.00,VWS V14.01,2013-06-05 05:53:00,
2013-06-05 01:55:00,54.1,37.9,30.10,SSW,202,0.0,0.0,54,0.00,,,0.00,VWS V14.01,2013-06-05 05:55:00,
2013-06-05 01:59:00,53.8,37.5,30.10,SSW,202,0.0,0.0,54,0.00,,,0.00,VWS V14.01,2013-06-05 05:59:00,
2013-06-05 02:00:00,53.8,37.5,30.10,SSW,202,0.0,0.0,54,0.00,,,0.00,VWS V14.01,2013-06-05 06:00:00,
2013-06-05 02:04:00,53.6,37.4,30.10,SSW,202,0.0,0.0,54,0.00,,,0.00,VWS V14.01,2013-06-05 06:04:00,
2013-06-05 02:05:00,53.8,37.5,30.10,SSW,202,0.0,0.0,54,0.00,,,0.00,VWS V14.01,2013-06-05 06:05:00,
2013-06-05 02:09:00,53.6,36.9,30.10,SSW,202,0.0,0.0,53,0.00,,,0.00,VWS V14.01,2013-06-05 06:09:00,
2013-06-05 02:10:00,53.6,36.9,30.10,SSW,202,0.0,0.0,53,0.00,,,0.00,VWS V14.01,2013-06-05 06:10:00,
2013-06-05 02:14:00,53.4,37.2,30.10,SSW,202,0.0,0.0,54,0.00,,,0.00,VWS V14.01,2013-06-05 06:14:00,
2013-06-05 02:15:00,53.6,36.9,30.10,SSW,202,0.0,0.0,53,0.00,,,0.00,VWS V14.01,2013-06-05 06:15:00,
2013-06-05 02:19:00,53.6,36.4,30.10,SSW,202,0.0,0.0,52,0.00,,,0.00,VWS V14.01,2013-06-05 06:19:00,
2013-06-05 02:20:00,53.6,36.9,30.10,SSW,202,0.0,0.0,53,0.00,,,0.00,VWS V14.01,2013-06-05 06:20:00,
2013-06-05 02:24:00,53.8,36.1,30.10,SSW,202,0.0,0.0,51,0.00,,,0.00,VWS V14.01,2013-06-05 06:24:00,
2013-06-05 02:25:00,53.6,36.4,30.10,SSW,202,0.0,0.0,52,0.00,,,0.00,VWS V14.01,2013-06-05 06:25:00,
2013-06-05 02:29:00,53.8,35.6,30.10,SSW,202,0.0,0.0,50,0.00,,,0.00,VWS V14.01,2013-06-05 06:29:00,
2013-06-05 02:30:00,53.8,35.6,30.10,SSW,202,0.0,0.0,50,0.00,,,0.00,VWS V14.01,2013-06-05 06:30:00,
2013-06-05 02:34:00,53.8,35.6,30.10,SSW,202,0.0,0.0,50,0.00,,,0.00,VWS V14.01,2013-06-05 06:34:00,
2013-06-05 02:35:00,53.8,35.6,30.10,SSW,202,0.0,0.0,50,0.00,,,0.00,VWS V14.01,2013-06-05 06:35:00,
2013-06-05 02:39:00,53.8,35.6,30.10,SSW,202,0.0,0.0,50,0.00,,,0.00,VWS V14.01,2013-06-05 06:39:00,
2013-06-05 02:40:00,53.8,35.6,30.10,SSW,202,0.0,0.0,50,0.00,,,0.00,VWS V14.01,2013-06-05 06:40:00,
2013-06-05 02:45:00,53.6,35.9,30.10,SSW,202,0.0,0.0,51,0.00,,,0.00,VWS V14.01,2013-06-05 06:45:00,
2013-06-05 02:50:00,53.4,36.2,30.10,SSW,202,0.0,0.0,52,0.00,,,0.00,VWS V14.01,2013-06-05 06:50:00,
2013-06-05 02:55:00,53.2,37.0,30.10,SSW,202,0.0,0.0,54,0.00,,,0.00,VWS V14.01,2013-06-05 06:55:00,
2013-06-05 03:00:00,53.1,36.9,30.10,SSW,202,0.0,0.0,54,0.00,,,0.00,VWS V14.01,2013-06-05 07:00:00,
2013-06-05 03:05:00,53.1,37.3,30.10,SSW,202,0.0,0.0,55,0.00,,,0.00,VWS V14.01,2013-06-05 07:05:00,
2013-06-05 03:10:00,52.9,37.6,30.10,SSW,202,0.0,0.0,56,0.00,,,0.00,VWS V14.01,2013-06-05 07:10:00,
2013-06-05 03:15:00,52.7,37.5,30.10,SSW,202,0.0,0.0,56,0.00,,,0.00,VWS V14.01,2013-06-05 07:15:00,
2013-06-05 03:20:00,52.5,37.3,30.10,SSW,202,0.0,0.0,56,0.00,,,0.00,VWS V14.01,2013-06-05 07:20:00,
2013-06-05 03:25:00,52.5,37.3,30.10,SSW,202,0.0,0.0,56,0.00,,,0.00,VWS V14.01,2013-06-05 07:25:00,
2013-06-05 03:30:00,52.3,37.6,30.10,SSW,202,0.0,0.0,57,0.00,,,0.00,VWS V14.01,2013-06-05 07:30:00,
2013-06-05 03:35:00,52.0,37.7,30.10,SSW,202,0.0,0.0,58,0.00,,,0.00,VWS V14.01,2013-06-05 07:35:00,
2013-06-05 03:40:00,51.8,37.5,30.10,SSW,202,0.0,0.0,58,0.00,,,0.00,VWS V14.01,2013-06-05 07:40:00,
2013-06-05 03:45:00,51.6,37.8,30.10,SSW,202,0.0,0.0,59,0.00,,,0.00,VWS V14.01,2013-06-05 07:45:00,
2013-06-05 03:50:00,51.8,37.5,30.10,SSW,200,0.0,0.0,58,0.00,,,0.00,VWS V14.01,2013-06-05 07:50:00,
2013-06-05 03:55:00,51.6,37.8,30.10,SSW,200,0.0,0.0,59,0.00,,,0.00,VWS V14.01,2013-06-05 07:55:00,
2013-06-05 04:00:00,51.8,37.5,30.10,SSW,200,0.0,0.0,58,0.00,,,0.00,VWS V14.01,2013-06-05 08:00:00,
2013-06-05 04:05:00,51.6,37.3,30.10,SSW,200,0.0,0.0,58,0.00,,,0.00,VWS V14.01,2013-06-05 08:05:00,
2013-06-05 04:10:00,51.6,36.9,30.10,SSW,200,0.0,0.0,57,0.00,,,0.00,VWS V14.01,2013-06-05 08:10:00,
2013-06-05 04:15:00,51.6,36.5,30.10,SSW,200,0.0,0.0,56,0.00,,,0.00,VWS V14.01,2013-06-05 08:15:00,
2013-06-05 04:20:00,51.6,36.5,30.10,SSW,200,0.0,0.0,56,0.00,,,0.00,VWS V14.01,2013-06-05 08:20:00,
2013-06-05 04:25:00,51.6,36.5,30.10,SSW,200,0.0,0.0,56,0.00,,,0.00,VWS V14.01,2013-06-05 08:25:00,
2013-06-05 04:26:00,51.4,36.3,30.10,SSW,200,0.0,0.0,56,0.00,,,0.00,VWS V14.01,2013-06-05 08:26:00,
2013-06-05 04:30:00,51.4,36.3,30.10,SSW,200,0.0,0.0,56,0.00,,,0.00,VWS V14.01,2013-06-05 08:30:00,
2013-06-05 04:31:00,51.4,36.7,30.10,SSW,200,0.0,0.0,57,0.00,,,0.00,VWS V14.01,2013-06-05 08:31:00,
2013-06-05 04:35:00,51.4,36.7,30.10,SSW,200,0.0,0.0,57,0.00,,,0.00,VWS V14.01,2013-06-05 08:35:00,
2013-06-05 04:36:00,51.4,36.7,30.10,SSW,200,0.0,0.0,57,0.00,,,0.00,VWS V14.01,2013-06-05 08:36:00,
2013-06-05 04:40:00,51.4,37.2,30.10,SSW,200,0.0,0.0,58,0.00,,,0.00,VWS V14.01,2013-06-05 08:40:00,
2013-06-05 04:41:00,51.3,37.0,30.10,SSW,200,0.0,0.0,58,0.00,,,0.00,VWS V14.01,2013-06-05 08:41:00,
2013-06-05 04:45:00,51.3,37.0,30.10,SSW,200,0.0,0.0,58,0.00,,,0.00,VWS V14.01,2013-06-05 08:45:00,
2013-06-05 04:46:00,51.1,36.8,30.10,SSW,200,0.0,0.0,58,0.00,,,0.00,VWS V14.01,2013-06-05 08:46:00,
2013-06-05 04:50:00,51.1,36.8,30.10,SSW,200,0.0,0.0,58,0.00,,,0.00,VWS V14.01,2013-06-05 08:50:00,
2013-06-05 04:51:00,50.9,36.7,30.10,SSW,200,0.0,0.0,58,0.00,,,0.00,VWS V14.01,2013-06-05 08:51:00,
2013-06-05 04:55:00,50.9,36.2,30.10,SSW,200,0.0,0.0,57,0.00,,,0.00,VWS V14.01,2013-06-05 08:55:00,
2013-06-05 04:56:00,50.9,36.2,30.10,SSW,200,0.0,0.0,57,0.00,,,0.00,VWS V14.01,2013-06-05 08:56:00,
2013-06-05 05:00:00,51.1,36.4,30.10,SSW,200,0.0,0.0,57,0.00,,,0.00,VWS V14.01,2013-06-05 09:00:00,
2013-06-05 05:01:00,50.9,36.2,30.13,SSW,200,0.0,0.0,57,0.00,,,0.00,VWS V14.01,2013-06-05 09:01:00,
2013-06-05 05:05:00,50.9,36.2,30.13,SSW,200,0.0,0.0,57,0.00,,,0.00,VWS V14.01,2013-06-05 09:05:00,
2013-06-05 05:06:00,50.5,36.3,30.13,SSW,200,0.0,0.0,58,0.00,,,0.00,VWS V14.01,2013-06-05 09:06:00,
2013-06-05 05:10:00,50.5,36.3,30.13,SSW,200,0.0,0.0,58,0.00,,,0.00,VWS V14.01,2013-06-05 09:10:00,
2013-06-05 05:11:00,50.5,36.8,30.13,SSW,200,0.0,0.0,59,0.00,,,0.00,VWS V14.01,2013-06-05 09:11:00,
2013-06-05 05:15:00,50.5,36.8,30.13,SSW,200,0.0,0.0,59,0.00,,,0.00,VWS V14.01,2013-06-05 09:15:00,
2013-06-05 05:16:00,50.4,36.6,30.13,SSW,200,0.0,0.0,59,0.00,,,0.00,VWS V14.01,2013-06-05 09:16:00,
2013-06-05 05:20:00,50.4,36.6,30.13,SSW,200,0.0,0.0,59,0.00,,,0.00,VWS V14.01,2013-06-05 09:20:00,
2013-06-05 05:21:00,50.5,36.8,30.13,SSW,200,0.0,0.0,59,0.00,,,0.00,VWS V14.01,2013-06-05 09:21:00,
2013-06-05 05:25:00,50.5,36.8,30.13,SSW,200,0.0,0.0,59,0.00,,,0.00,VWS V14.01,2013-06-05 09:25:00,
2013-06-05 05:27:00,50.5,37.2,30.13,SSW,200,0.0,0.0,60,0.00,,,0.00,VWS V14.01,2013-06-05 09:27:00,
2013-06-05 05:30:00,50.5,37.2,30.13,SSW,200,0.0,0.0,60,0.00,,,0.00,VWS V14.01,2013-06-05 09:30:00,
2013-06-05 05:32:00,50.4,37.4,30.13,SSW,200,0.0,0.0,61,0.00,,,0.00,VWS V14.01,2013-06-05 09:32:00,
2013-06-05 05:35:00,50.4,37.4,30.13,SSW,200,0.0,0.0,61,0.00,,,0.00,VWS V14.01,2013-06-05 09:35:00,
2013-06-05 05:37:00,50.4,37.4,30.13,SSW,200,0.0,0.0,61,0.00,,,0.00,VWS V14.01,2013-06-05 09:37:00,
2013-06-05 05:40:00,50.4,37.4,30.13,SSW,200,0.0,0.0,61,0.00,,,0.00,VWS V14.01,2013-06-05 09:40:00,
2013-06-05 05:42:00,50.5,37.6,30.13,SSW,200,0.0,0.0,61,0.00,,,0.00,VWS V14.01,2013-06-05 09:42:00,
2013-06-05 05:45:00,50.5,37.6,30.13,SSW,200,0.0,0.0,61,0.00,,,0.00,VWS V14.01,2013-06-05 09:45:00,
2013-06-05 05:47:00,50.4,37.0,30.13,SSW,200,0.0,0.0,60,0.00,,,0.00,VWS V14.01,2013-06-05 09:47:00,
2013-06-05 05:50:00,50.4,37.0,30.13,SSW,200,0.0,0.0,60,0.00,,,0.00,VWS V14.01,2013-06-05 09:50:00,
2013-06-05 05:52:00,50.4,36.6,30.13,SSW,200,0.0,0.0,59,0.00,,,0.00,VWS V14.01,2013-06-05 09:52:00,
2013-06-05 05:55:00,50.4,36.6,30.13,SSW,200,0.0,0.0,59,0.00,,,0.00,VWS V14.01,2013-06-05 09:55:00,
2013-06-05 05:57:00,50.2,36.4,30.13,SSW,200,0.0,0.0,59,0.00,,,0.00,VWS V14.01,2013-06-05 09:57:00,
2013-06-05 06:00:00,50.2,36.0,30.13,SSW,200,0.0,0.0,58,0.00,,,0.00,VWS V14.01,2013-06-05 10:00:00,
2013-06-05 06:02:00,50.2,36.0,30.13,SSW,200,0.0,0.0,58,0.00,,,0.00,VWS V14.01,2013-06-05 10:02:00,
2013-06-05 06:05:00,50.2,36.0,30.13,SSW,200,0.0,0.0,58,0.00,,,0.00,VWS V14.01,2013-06-05 10:05:00,
2013-06-05 06:07:00,50.2,36.0,30.13,SSW,200,0.0,0.0,58,0.00,,,0.00,VWS V14.01,2013-06-05 10:07:00,
2013-06-05 06:10:00,50.2,36.0,30.13,SSW,200,0.0,0.0,58,0.00,,,0.00,VWS V14.01,2013-06-05 10:10:00,
2013-06-05 06:12:00,50.2,36.0,30.13,SSW,200,0.0,0.0,58,0.00,,,0.00,VWS V14.01,2013-06-05 10:12:00,
2013-06-05 06:15:00,50.2,36.0,30.16,SSW,200,0.0,0.0,58,0.00,,,0.00,VWS V14.01,2013-06-05 10:15:00,
2013-06-05 06:17:00,50.2,36.0,30.16,SSW,200,0.0,0.0,58,0.00,,,0.00,VWS V14.01,2013-06-05 10:17:00,
2013-06-05 06:20:00,50.4,36.6,30.16,SSW,200,0.0,0.0,59,0.00,,,0.00,VWS V14.01,2013-06-05 10:20:00,
2013-06-05 06:22:00,50.4,36.6,30.16,SSW,200,0.0,0.0,59,0.00,,,0.00,VWS V14.01,2013-06-05 10:22:00,
2013-06-05 06:25:00,50.5,36.8,30.16,SSW,200,0.0,0.0,59,0.00,,,0.00,VWS V14.01,2013-06-05 10:25:00,
2013-06-05 06:27:00,50.5,36.8,30.16,SSW,200,0.0,0.0,59,0.00,,,0.00,VWS V14.01,2013-06-05 10:27:00,
2013-06-05 06:30:00,50.5,36.8,30.16,SSW,200,0.0,0.0,59,0.00,,,0.00,VWS V14.01,2013-06-05 10:30:00,
2013-06-05 06:32:00,50.7,37.4,30.16,SSW,200,0.0,0.0,60,0.00,,,0.00,VWS V14.01,2013-06-05 10:32:00,
2013-06-05 06:35:00,50.9,37.5,30.16,SSW,200,0.0,0.0,60,0.00,,,0.00,VWS V14.01,2013-06-05 10:35:00,
2013-06-05 06:37:00,50.9,38.0,30.16,SSW,200,0.0,0.0,61,0.00,,,0.00,VWS V14.01,2013-06-05 10:37:00,
2013-06-05 06:40:00,51.1,38.1,30.16,SSW,200,0.0,0.0,61,0.00,,,0.00,VWS V14.01,2013-06-05 10:40:00,
2013-06-05 06:43:00,51.3,38.3,30.16,SSW,200,0.0,0.0,61,0.00,,,0.00,VWS V14.01,2013-06-05 10:43:00,
2013-06-05 06:45:00,51.4,38.9,30.16,SSW,200,0.0,0.0,62,0.00,,,0.00,VWS V14.01,2013-06-05 10:45:00,
2013-06-05 06:47:00,51.6,39.0,30.16,SSW,200,0.0,0.0,62,0.00,,,0.00,VWS V14.01,2013-06-05 10:47:00,
2013-06-05 06:50:00,51.8,38.8,30.16,SSW,200,0.0,0.0,61,0.00,,,0.00,VWS V14.01,2013-06-05 10:50:00,
2013-06-05 06:52:00,52.0,39.4,30.16,SSW,200,0.0,0.0,62,0.00,,,0.00,VWS V14.01,2013-06-05 10:52:00,
2013-06-05 06:55:00,52.3,39.3,30.16,SSW,200,0.0,0.0,61,0.00,,,0.00,VWS V14.01,2013-06-05 10:55:00,
2013-06-05 06:58:00,52.7,39.6,30.16,SSW,200,0.0,0.0,61,0.00,,,0.00,VWS V14.01,2013-06-05 10:58:00,
2013-06-05 07:00:00,52.9,39.8,30.16,SSW,200,0.0,0.0,61,0.00,,,0.00,VWS V14.01,2013-06-05 11:00:00,
2013-06-05 07:03:00,52.9,39.8,30.16,SSW,200,0.0,0.0,61,0.00,,,0.00,VWS V14.01,2013-06-05 11:03:00,
2013-06-05 07:05:00,52.9,39.8,30.16,SSW,200,0.0,0.0,61,0.00,,,0.00,VWS V14.01,2013-06-05 11:05:00,
2013-06-05 07:08:00,53.1,40.0,30.16,SSW,200,0.0,0.0,61,0.00,,,0.00,VWS V14.01,2013-06-05 11:08:00,
2013-06-05 07:10:00,53.1,40.0,30.16,SSW,200,0.0,0.0,61,0.00,,,0.00,VWS V14.01,2013-06-05 11:10:00,
2013-06-05 07:13:00,53.2,40.2,30.16,SSW,200,0.0,0.0,61,0.00,,,0.00,VWS V14.01,2013-06-05 11:13:00,
2013-06-05 07:15:00,53.4,40.3,30.16,SSW,200,0.0,0.0,61,0.00,,,0.00,VWS V14.01,2013-06-05 11:15:00,
2013-06-05 07:18:00,53.8,40.2,30.16,SSW,200,0.0,0.0,60,0.00,,,0.00,VWS V14.01,2013-06-05 11:18:00,
2013-06-05 07:20:00,54.3,41.2,30.16,SSW,200,0.0,0.0,61,0.00,,,0.00,VWS V14.01,2013-06-05 11:20:00,
2013-06-05 07:23:00,54.7,41.1,30.16,South,173,0.0,0.0,60,0.00,,,0.00,VWS V14.01,2013-06-05 11:23:00,
2013-06-05 07:25:00,54.9,41.2,30.16,South,173,0.0,0.0,60,0.00,,,0.00,VWS V14.01,2013-06-05 11:25:00,
2013-06-05 07:28:00,55.2,41.2,30.19,South,173,0.0,0.0,59,0.00,,,0.00,VWS V14.01,2013-06-05 11:28:00,
2013-06-05 07:30:00,55.4,40.9,30.19,South,173,0.0,0.0,58,0.00,,,0.00,VWS V14.01,2013-06-05 11:30:00,
2013-06-05 07:33:00,55.6,40.6,30.19,South,173,0.0,0.0,57,0.00,,,0.00,VWS V14.01,2013-06-05 11:33:00,
2013-06-05 07:35:00,55.6,40.6,30.19,South,173,0.0,0.0,57,0.00,,,0.00,VWS V14.01,2013-06-05 11:35:00,
2013-06-05 07:38:00,55.9,40.5,30.19,South,173,0.0,0.0,56,0.00,,,0.00,VWS V14.01,2013-06-05 11:38:00,
2013-06-05 07:40:00,55.9,40.5,30.19,South,173,0.0,0.0,56,0.00,,,0.00,VWS V14.01,2013-06-05 11:40:00,
2013-06-05 07:43:00,56.1,40.7,30.19,SSE,160,0.0,0.0,56,0.00,,,0.00,VWS V14.01,2013-06-05 11:43:00,
2013-06-05 07:45:00,56.3,40.8,30.19,SE,130,0.0,0.0,56,0.00,,,0.00,VWS V14.01,2013-06-05 11:45:00,
2013-06-05 07:48:00,56.8,40.9,30.19,SE,130,0.0,0.0,55,0.00,,,0.00,VWS V14.01,2013-06-05 11:48:00,
2013-06-05 07:50:00,57.0,41.0,30.19,SE,130,0.0,0.0,55,0.00,,,0.00,VWS V14.01,2013-06-05 11:50:00,
2013-06-05 07:53:00,57.6,40.6,30.19,SE,130,0.0,0.0,53,0.00,,,0.00,VWS V14.01,2013-06-05 11:53:00,
2013-06-05 07:55:00,57.7,40.7,30.19,SE,130,0.0,0.0,53,0.00,,,0.00,VWS V14.01,2013-06-05 11:55:00,
2013-06-05 07:58:00,57.7,40.7,30.19,SE,130,0.0,0.0,53,0.00,,,0.00,VWS V14.01,2013-06-05 11:58:00,
2013-06-05 08:00:00,57.9,40.9,30.19,SE,130,0.0,0.0,53,0.00,,,0.00,VWS V14.01,2013-06-05 12:00:00,
2013-06-05 08:04:00,58.3,41.2,30.19,SE,130,0.0,0.0,53,0.00,,,0.00,VWS V14.01,2013-06-05 12:04:00,
2013-06-05 08:05:00,58.3,40.8,30.19,SE,130,0.0,0.0,52,0.00,,,0.00,VWS V14.01,2013-06-05 12:05:00,
2013-06-05 08:09:00,58.1,40.6,30.19,SE,130,0.0,0.0,52,0.00,,,0.00,VWS V14.01,2013-06-05 12:09:00,
2013-06-05 08:10:00,58.1,40.1,30.19,SE,130,0.0,0.0,51,0.00,,,0.00,VWS V14.01,2013-06-05 12:10:00,
2013-06-05 08:14:00,58.1,40.1,30.19,SE,130,0.0,0.0,51,0.00,,,0.00,VWS V14.01,2013-06-05 12:14:00,
2013-06-05 08:15:00,58.1,40.1,30.19,SE,130,0.0,0.0,51,0.00,,,0.00,VWS V14.01,2013-06-05 12:15:00,
2013-06-05 08:19:00,58.6,40.6,30.19,SE,130,0.0,0.0,51,0.00,,,0.00,VWS V14.01,2013-06-05 12:19:00,
2013-06-05 08:20:00,58.8,40.8,30.19,SE,130,0.0,0.0,51,0.00,,,0.00,VWS V14.01,2013-06-05 12:20:00,
2013-06-05 08:24:00,59.5,40.9,30.19,SE,130,0.0,0.0,50,0.00,,,0.00,VWS V14.01,2013-06-05 12:24:00,
2013-06-05 08:25:00,59.4,40.7,30.19,SE,130,0.0,0.0,50,0.00,,,0.00,VWS V14.01,2013-06-05 12:25:00,
2013-06-05 08:29:00,59.4,40.7,30.19,SE,130,0.0,0.0,50,0.00,,,0.00,VWS V14.01,2013-06-05 12:29:00,
2013-06-05 08:30:00,59.5,40.9,30.19,SE,130,0.0,0.0,50,0.00,,,0.00,VWS V14.01,2013-06-05 12:30:00,
2013-06-05 08:34:00,59.4,40.7,30.19,SE,130,0.0,0.0,50,0.00,,,0.00,VWS V14.01,2013-06-05 12:34:00,
2013-06-05 08:35:00,59.4,40.7,30.19,SE,130,0.0,0.0,50,0.00,,,0.00,VWS V14.01,2013-06-05 12:35:00,
2013-06-05 08:39:00,59.2,41.1,30.19,SE,130,0.0,0.0,51,0.00,,,0.00,VWS V14.01,2013-06-05 12:39:00,
2013-06-05 08:40:00,59.2,41.1,30.19,SE,130,0.0,0.0,51,0.00,,,0.00,VWS V14.01,2013-06-05 12:40:00,
2013-06-05 08:44:00,59.4,41.2,30.19,SE,130,0.0,0.0,51,0.00,,,0.00,VWS V14.01,2013-06-05 12:44:00,
2013-06-05 08:45:00,59.4,41.2,30.19,SE,130,0.0,0.0,51,0.00,,,0.00,VWS V14.01,2013-06-05 12:45:00,
2013-06-05 08:49:00,59.5,41.4,30.19,SE,130,0.0,0.0,51,0.00,,,0.00,VWS V14.01,2013-06-05 12:49:00,
2013-06-05 08:50:00,59.5,41.4,30.19,SE,130,0.0,0.0,51,0.00,,,0.00,VWS V14.01,2013-06-05 12:50:00,
2013-06-05 08:54:00,59.9,41.8,30.19,SE,130,0.0,0.0,51,0.00,,,0.00,VWS V14.01,2013-06-05 12:54:00,
2013-06-05 08:55:00,60.1,41.9,30.19,SE,130,0.0,0.0,51,0.00,,,0.00,VWS V14.01,2013-06-05 12:55:00,
2013-06-05 08:59:00,60.3,42.1,30.19,SE,130,0.0,0.0,51,0.00,,,0.00,VWS V14.01,2013-06-05 12:59:00,
2013-06-05 09:00:00,60.3,42.1,30.19,SE,130,0.0,0.0,51,0.00,,,0.00,VWS V14.01,2013-06-05 13:00:00,
2013-06-05 09:04:00,60.6,42.4,30.19,SE,130,0.0,0.0,51,0.00,,,0.00,VWS V14.01,2013-06-05 13:04:00,
2013-06-05 09:05:00,60.6,42.4,30.19,SE,130,0.0,0.0,51,0.00,,,0.00,VWS V14.01,2013-06-05 13:05:00,
2013-06-05 09:09:00,61.2,43.4,30.19,SE,130,0.0,3.1,52,0.00,,,0.00,VWS V14.01,2013-06-05 13:09:00,
2013-06-05 09:10:00,61.3,43.6,30.19,SE,130,0.0,3.1,52,0.00,,,0.00,VWS V14.01,2013-06-05 13:10:00,
2013-06-05 09:14:00,61.7,43.9,30.19,ESE,103,0.0,3.1,52,0.00,,,0.00,VWS V14.01,2013-06-05 13:14:00,
2013-06-05 09:15:00,61.7,43.9,30.19,ESE,103,2.2,3.1,52,0.00,,,0.00,VWS V14.01,2013-06-05 13:15:00,
2013-06-05 09:19:00,61.9,43.6,30.19,SE,133,0.0,3.6,51,0.00,,,0.00,VWS V14.01,2013-06-05 13:19:00,
2013-06-05 09:20:00,61.9,43.6,30.19,SE,133,0.0,3.6,51,0.00,,,0.00,VWS V14.01,2013-06-05 13:20:00,
2013-06-05 09:24:00,61.9,43.6,30.19,ENE,74,2.7,3.1,51,0.00,,,0.00,VWS V14.01,2013-06-05 13:24:00,
2013-06-05 09:25:00,61.9,43.6,30.19,ENE,74,0.0,3.1,51,0.00,,,0.00,VWS V14.01,2013-06-05 13:25:00,
2013-06-05 09:29:00,61.9,43.6,30.19,SSE,154,0.0,4.0,51,0.00,,,0.00,VWS V14.01,2013-06-05 13:29:00,
2013-06-05 09:30:00,61.9,43.6,30.19,SSE,154,0.0,4.0,51,0.00,,,0.00,VWS V14.01,2013-06-05 13:30:00,
2013-06-05 09:34:00,61.9,43.1,30.19,SSE,154,0.0,2.2,50,0.00,,,0.00,VWS V14.01,2013-06-05 13:34:00,
2013-06-05 09:35:00,61.9,43.1,30.19,SSE,154,0.0,2.2,50,0.00,,,0.00,VWS V14.01,2013-06-05 13:35:00,
2013-06-05 09:39:00,62.1,42.7,30.19,ENE,75,3.1,3.6,49,0.00,,,0.00,VWS V14.01,2013-06-05 13:39:00,
2013-06-05 09:40:00,62.1,42.7,30.19,ENE,75,3.1,3.6,49,0.00,,,0.00,VWS V14.01,2013-06-05 13:40:00,
2013-06-05 09:45:00,62.2,42.9,30.19,ENE,75,0.0,3.1,49,0.00,,,0.00,VWS V14.01,2013-06-05 13:45:00,
2013-06-05 09:50:00,62.6,43.2,30.19,East,93,3.1,3.1,49,0.00,,,0.00,VWS V14.01,2013-06-05 13:50:00,
2013-06-05 09:55:00,62.8,43.4,30.19,ESE,117,0.0,0.0,49,0.00,,,0.00,VWS V14.01,2013-06-05 13:55:00,
2013-06-05 10:00:00,62.8,43.4,30.19,ENE,77,2.7,3.6,49,0.00,,,0.00,VWS V14.01,2013-06-05 14:00:00,
2013-06-05 10:05:00,63.0,43.0,30.19,ENE,77,2.2,2.2,48,0.00,,,0.00,VWS V14.01,2013-06-05 14:05:00,
2013-06-05 10:10:00,63.3,43.8,30.19,ENE,77,0.0,0.0,49,0.00,,,0.00,VWS V14.01,2013-06-05 14:10:00,
2013-06-05 10:15:00,63.5,44.0,30.19,SE,127,2.7,2.7,49,0.00,,,0.00,VWS V14.01,2013-06-05 14:15:00,
2013-06-05 10:20:00,64.0,44.5,30.19,SE,138,3.6,3.6,49,0.00,,,0.00,VWS V14.01,2013-06-05 14:20:00,
2013-06-05 10:25:00,64.4,44.3,30.19,ESE,123,4.0,4.0,48,0.00,,,0.00,VWS V14.01,2013-06-05 14:25:00,
2013-06-05 10:30:00,65.3,44.6,30.19,South,178,4.0,6.3,47,0.00,,,0.00,VWS V14.01,2013-06-05 14:30:00,
2013-06-05 10:35:00,65.8,44.5,30.19,SSE,164,0.0,0.0,46,0.00,,,0.00,VWS V14.01,2013-06-05 14:35:00,
2013-06-05 10:40:00,66.0,44.1,30.19,SSE,156,2.7,3.6,45,0.00,,,0.00,VWS V14.01,2013-06-05 14:40:00,
2013-06-05 10:45:00,66.4,44.4,30.19,SE,131,2.2,3.1,45,0.00,,,0.00,VWS V14.01,2013-06-05 14:45:00,
2013-06-05 10:50:00,66.6,44.6,30.19,ESE,119,4.0,4.0,45,0.00,,,0.00,VWS V14.01,2013-06-05 14:50:00,
2013-06-05 10:55:00,66.7,44.8,30.19,SE,124,0.0,4.9,45,0.00,,,0.00,VWS V14.01,2013-06-05 14:55:00,
2013-06-05 10:56:00,66.6,44.6,30.19,SE,124,0.0,0.0,45,0.00,,,0.00,VWS V14.01,2013-06-05 14:56:00,
2013-06-05 11:00:00,66.7,44.8,30.16,SE,130,0.0,4.9,45,0.00,,,0.00,VWS V14.01,2013-06-05 15:00:00,
2013-06-05 11:01:00,66.7,44.8,30.16,South,172,2.7,2.7,45,0.00,,,0.00,VWS V14.01,2013-06-05 15:01:00,
2013-06-05 11:05:00,66.9,44.3,30.16,SSE,155,3.6,5.4,44,0.00,,,0.00,VWS V14.01,2013-06-05 15:05:00,
2013-06-05 11:06:00,66.9,44.3,30.16,SSE,155,0.0,3.6,44,0.00,,,0.00,VWS V14.01,2013-06-05 15:06:00,
2013-06-05 11:10:00,67.1,44.5,30.16,SSE,155,0.0,3.6,44,0.00,,,0.00,VWS V14.01,2013-06-05 15:10:00,
2013-06-05 11:11:00,67.3,44.7,30.16,SE,139,4.0,5.4,44,0.00,,,0.00,VWS V14.01,2013-06-05 15:11:00,
2013-06-05 11:15:00,67.3,44.7,30.16,SSE,156,3.1,5.4,44,0.00,,,0.00,VWS V14.01,2013-06-05 15:15:00,
2013-06-05 11:16:00,67.3,44.0,30.16,SSE,151,0.0,3.6,43,0.00,,,0.00,VWS V14.01,2013-06-05 15:16:00,
2013-06-05 11:20:00,67.3,44.0,30.16,SSE,151,3.1,3.6,43,0.00,,,0.00,VWS V14.01,2013-06-05 15:20:00,
2013-06-05 11:21:00,67.3,44.0,30.16,SE,136,3.1,4.9,43,0.00,,,0.00,VWS V14.01,2013-06-05 15:21:00,
2013-06-05 11:25:00,67.3,44.0,30.16,SSE,151,2.7,4.9,43,0.00,,,0.00,VWS V14.01,2013-06-05 15:25:00,
2013-06-05 11:26:00,67.3,44.0,30.16,South,172,5.8,5.8,43,0.00,,,0.00,VWS V14.01,2013-06-05 15:26:00,
2013-06-05 11:30:00,67.5,44.2,30.16,SSE,147,0.0,5.8,43,0.00,,,0.00,VWS V14.01,2013-06-05 15:30:00,
2013-06-05 11:31:00,67.6,44.4,30.16,SSE,147,3.1,3.1,43,0.00,,,0.00,VWS V14.01,2013-06-05 15:31:00,
2013-06-05 11:35:00,67.8,44.5,30.16,ESE,122,4.0,4.9,43,0.00,,,0.00,VWS V14.01,2013-06-05 15:35:00,
2013-06-05 11:36:00,67.8,44.5,30.16,SE,133,3.1,5.8,43,0.00,,,0.00,VWS V14.01,2013-06-05 15:36:00,
2013-06-05 11:40:00,67.6,44.4,30.16,SSE,148,5.8,5.8,43,0.00,,,0.00,VWS V14.01,2013-06-05 15:40:00,
2013-06-05 11:41:00,67.8,44.5,30.16,SE,126,5.8,5.8,43,0.00,,,0.00,VWS V14.01,2013-06-05 15:41:00,
2013-06-05 11:45:00,67.8,44.5,30.16,SSE,162,5.8,5.8,43,0.00,,,0.00,VWS V14.01,2013-06-05 15:45:00,
2013-06-05 11:46:00,67.8,44.5,30.16,SSE,150,3.6,5.8,43,0.00,,,0.00,VWS V14.01,2013-06-05 15:46:00,
2013-06-05 11:50:00,68.0,44.1,30.16,West,270,4.0,5.8,42,0.00,,,0.00,VWS V14.01,2013-06-05 15:50:00,
2013-06-05 11:51:00,68.2,44.2,30.16,South,173,3.1,4.0,42,0.00,,,0.00,VWS V14.01,2013-06-05 15:51:00,
2013-06-05 11:55:00,68.0,43.5,30.16,South,172,0.0,4.0,41,0.00,,,0.00,VWS V14.01,2013-06-05 15:55:00,
2013-06-05 11:57:00,68.0,43.5,30.16,South,172,0.0,0.0,41,0.00,,,0.00,VWS V14.01,2013-06-05 15:57:00,
2013-06-05 12:00:00,68.4,44.4,30.16,South,172,0.0,3.6,42,0.00,,,0.00,VWS V14.01,2013-06-05 16:00:00,
2013-06-05 12:02:00,68.5,44.6,30.16,South,172,0.0,0.0,42,0.00,,,0.00,VWS V14.01,2013-06-05 16:02:00,
2013-06-05 12:05:00,68.7,44.7,30.16,SE,130,4.0,4.0,42,0.00,,,0.00,VWS V14.01,2013-06-05 16:05:00,
2013-06-05 12:07:00,69.1,45.0,30.16,SE,139,0.0,4.0,42,0.00,,,0.00,VWS V14.01,2013-06-05 16:07:00,
2013-06-05 12:10:00,68.9,44.2,30.16,East,99,3.1,4.0,41,0.00,,,0.00,VWS V14.01,2013-06-05 16:10:00,
2013-06-05 12:12:00,69.1,45.0,30.16,East,99,2.7,3.1,42,0.00,,,0.00,VWS V14.01,2013-06-05 16:12:00,
2013-06-05 12:15:00,69.3,45.2,30.16,ESE,118,4.0,4.0,42,0.00,,,0.00,VWS V14.01,2013-06-05 16:15:00,
2013-06-05 12:17:00,69.4,45.4,30.16,ESE,118,0.0,4.0,42,0.00,,,0.00,VWS V14.01,2013-06-05 16:17:00,
2013-06-05 12:20:00,69.4,44.7,30.16,SSE,147,4.9,4.9,41,0.00,,,0.00,VWS V14.01,2013-06-05 16:20:00,
2013-06-05 12:22:00,69.6,44.9,30.16,SE,135,2.2,4.9,41,0.00,,,0.00,VWS V14.01,2013-06-05 16:22:00,
2013-06-05 12:25:00,69.4,44.1,30.16,East,81,2.2,4.9,40,0.00,,,0.00,VWS V14.01,2013-06-05 16:25:00,
2013-06-05 12:27:00,69.6,44.2,30.16,East,80,0.0,2.7,40,0.00,,,0.00,VWS V14.01,2013-06-05 16:27:00,
2013-06-05 12:30:00,70.2,44.7,30.16,SSE,167,4.0,5.4,40,0.00,,,0.00,VWS V14.01,2013-06-05 16:30:00,
2013-06-05 12:32:00,70.5,45.1,30.16,SSE,167,0.0,4.0,40,0.00,,,0.00,VWS V14.01,2013-06-05 16:32:00,
2013-06-05 12:35:00,70.9,45.4,30.16,SSE,162,3.1,4.0,40,0.00,,,0.00,VWS V14.01,2013-06-05 16:35:00,
2013-06-05 12:37:00,71.2,45.0,30.16,SSE,167,0.0,4.9,39,0.00,,,0.00,VWS V14.01,2013-06-05 16:37:00,
2013-06-05 12:40:00,71.2,45.0,30.16,SSE,167,0.0,4.9,39,0.00,,,0.00,VWS V14.01,2013-06-05 16:40:00,
2013-06-05 12:42:00,71.4,45.2,30.16,SSW,205,2.2,4.0,39,0.00,,,0.00,VWS V14.01,2013-06-05 16:42:00,
2013-06-05 12:45:00,71.6,44.7,30.16,SSE,157,2.2,4.0,38,0.00,,,0.00,VWS V14.01,2013-06-05 16:45:00,
2013-06-05 12:47:00,71.6,44.0,30.16,SSE,157,2.7,3.1,37,0.00,,,0.00,VWS V14.01,2013-06-05 16:47:00,
2013-06-05 12:50:00,71.8,44.1,30.16,SSE,155,5.4,8.7,37,0.00,,,0.00,VWS V14.01,2013-06-05 16:50:00,
2013-06-05 12:52:00,71.8,44.1,30.16,ESE,107,3.1,6.3,37,0.00,,,0.00,VWS V14.01,2013-06-05 16:52:00,
2013-06-05 12:55:00,71.1,42.8,30.16,East,95,0.0,6.3,36,0.00,,,0.00,VWS V14.01,2013-06-05 16:55:00,
2013-06-05 12:57:00,71.4,43.8,30.16,SSE,159,4.9,4.9,37,0.00,,,0.00,VWS V14.01,2013-06-05 16:57:00,
2013-06-05 13:00:00,72.0,44.3,30.13,SW,216,2.7,4.9,37,0.00,,,0.00,VWS V14.01,2013-06-05 17:00:00,
2013-06-05 13:03:00,72.7,44.2,30.13,SW,225,2.7,3.6,36,0.00,,,0.00,VWS V14.01,2013-06-05 17:03:00,
2013-06-05 13:05:00,73.2,45.4,30.13,SW,214,3.1,4.0,37,0.00,,,0.00,VWS V14.01,2013-06-05 17:05:00,
2013-06-05 13:08:00,73.4,44.8,30.13,WSW,247,3.1,3.6,36,0.00,,,0.00,VWS V14.01,2013-06-05 17:08:00,
2013-06-05 13:10:00,73.8,45.2,30.13,SW,231,2.7,3.6,36,0.00,,,0.00,VWS V14.01,2013-06-05 17:10:00,
2013-06-05 13:13:00,73.9,44.6,30.13,West,272,2.2,6.7,35,0.00,,,0.00,VWS V14.01,2013-06-05 17:13:00,
2013-06-05 13:15:00,73.9,44.6,30.13,West,265,3.6,6.7,35,0.00,,,0.00,VWS V14.01,2013-06-05 17:15:00,
2013-06-05 13:18:00,74.3,44.9,30.13,WSW,238,3.1,6.3,35,0.00,,,0.00,VWS V14.01,2013-06-05 17:18:00,
2013-06-05 13:20:00,74.3,44.1,30.13,WSW,255,0.0,6.3,34,0.00,,,0.00,VWS V14.01,2013-06-05 17:20:00,
2013-06-05 13:23:00,75.2,44.9,30.13,WSW,237,2.7,5.8,34,0.00,,,0.00,VWS V14.01,2013-06-05 17:23:00,
2013-06-05 13:25:00,75.6,45.2,30.13,South,169,4.0,5.8,34,0.00,,,0.00,VWS V14.01,2013-06-05 17:25:00,
2013-06-05 13:28:00,76.1,45.7,30.13,SSE,161,3.6,6.3,34,0.00,,,0.00,VWS V14.01,2013-06-05 17:28:00,
2013-06-05 13:30:00,76.5,46.0,30.13,WSW,237,0.0,6.3,34,0.00,,,0.00,VWS V14.01,2013-06-05 17:30:00,
2013-06-05 13:33:00,77.0,45.7,30.13,WNW,283,2.7,4.0,33,0.00,,,0.00,VWS V14.01,2013-06-05 17:33:00,
2013-06-05 13:35:00,77.2,45.9,30.13,West,275,4.0,4.0,33,0.00,,,0.00,VWS V14.01,2013-06-05 17:35:00,
2013-06-05 13:38:00,78.1,46.7,30.13,SE,126,0.0,4.0,33,0.00,,,0.00,VWS V14.01,2013-06-05 17:38:00,
2013-06-05 13:40:00,77.5,45.4,30.13,SE,126,2.2,4.0,32,0.00,,,0.00,VWS V14.01,2013-06-05 17:40:00,
2013-06-05 13:43:00,77.2,45.9,30.13,SE,139,2.2,5.4,33,0.00,,,0.00,VWS V14.01,2013-06-05 17:43:00,
2013-06-05 13:45:00,77.0,45.7,30.13,SE,139,2.2,5.4,33,0.00,,,0.00,VWS V14.01,2013-06-05 17:45:00,
2013-06-05 13:48:00,77.9,46.5,30.13,SSW,207,0.0,4.0,33,0.00,,,0.00,VWS V14.01,2013-06-05 17:48:00,
2013-06-05 13:50:00,77.9,46.5,30.13,SW,214,0.0,4.0,33,0.00,,,0.00,VWS V14.01,2013-06-05 17:50:00,
2013-06-05 13:53:00,77.7,45.5,30.13,South,173,4.0,4.5,32,0.00,,,0.00,VWS V14.01,2013-06-05 17:53:00,
2013-06-05 13:55:00,77.5,46.2,30.13,SSE,160,0.0,4.5,33,0.00,,,0.00,VWS V14.01,2013-06-05 17:55:00,
2013-06-05 13:58:00,77.5,46.2,30.13,SSE,152,4.0,5.4,33,0.00,,,0.00,VWS V14.01,2013-06-05 17:58:00,
2013-06-05 14:00:00,77.4,46.0,30.13,SSE,153,3.1,5.4,33,0.00,,,0.00,VWS V14.01,2013-06-05 18:00:00,
2013-06-05 14:03:00,77.0,45.7,30.13,SSE,161,5.4,5.4,33,0.00,,,0.00,VWS V14.01,2013-06-05 18:03:00,
2013-06-05 14:05:00,76.3,45.1,30.13,SSE,155,3.1,6.3,33,0.00,,,0.00,VWS V14.01,2013-06-05 18:05:00,
2013-06-05 14:08:00,76.3,45.1,30.13,SSE,155,0.0,3.1,33,0.00,,,0.00,VWS V14.01,2013-06-05 18:08:00,
2013-06-05 14:10:00,75.2,43.3,30.13,SSE,155,0.0,3.1,32,0.00,,,0.00,VWS V14.01,2013-06-05 18:10:00,
2013-06-05 14:13:00,73.9,43.0,30.13,East,93,3.1,3.1,33,0.00,,,0.00,VWS V14.01,2013-06-05 18:13:00,
2013-06-05 14:15:00,73.9,43.0,30.13,ENE,71,2.7,3.6,33,0.00,,,0.00,VWS V14.01,2013-06-05 18:15:00,
2013-06-05 14:18:00,74.5,44.3,30.13,SE,129,2.7,3.6,34,0.00,,,0.00,VWS V14.01,2013-06-05 18:18:00,
2013-06-05 14:20:00,75.0,44.8,30.13,SE,129,2.7,3.6,34,0.00,,,0.00,VWS V14.01,2013-06-05 18:20:00,
2013-06-05 14:23:00,75.2,44.2,30.13,SSE,153,2.7,3.1,33,0.00,,,0.00,VWS V14.01,2013-06-05 18:23:00,
2013-06-05 14:25:00,75.6,44.5,30.13,South,181,4.0,4.0,33,0.00,,,0.00,VWS V14.01,2013-06-05 18:25:00,
2013-06-05 14:28:00,75.9,44.8,30.13,West,265,0.0,4.9,33,0.00,,,0.00,VWS V14.01,2013-06-05 18:28:00,
2013-06-05 14:30:00,76.3,45.1,30.13,West,265,0.0,4.9,33,0.00,,,0.00,VWS V14.01,2013-06-05 18:30:00,
2013-06-05 14:33:00,76.5,45.2,30.13,WSW,237,2.7,4.9,33,0.00,,,0.00,VWS V14.01,2013-06-05 18:33:00,
2013-06-05 14:35:00,76.3,45.1,30.13,East,91,2.2,4.9,33,0.00,,,0.00,VWS V14.01,2013-06-05 18:35:00,
2013-06-05 14:39:00,75.2,44.2,30.13,East,91,0.0,2.7,33,0.00,,,0.00,VWS V14.01,2013-06-05 18:39:00,
2013-06-05 14:40:00,75.7,44.6,30.13,East,91,0.0,2.7,33,0.00,,,0.00,VWS V14.01,2013-06-05 18:40:00,
2013-06-05 14:44:00,75.7,44.6,30.10,East,92,0.0,3.1,33,0.00,,,0.00,VWS V14.01,2013-06-05 18:44:00,
2013-06-05 14:45:00,76.1,44.9,30.10,SSE,156,3.1,3.1,33,0.00,,,0.00,VWS V14.01,2013-06-05 18:45:00,
2013-06-05 14:49:00,77.4,46.0,30.10,SE,126,2.7,4.0,33,0.00,,,0.00,VWS V14.01,2013-06-05 18:49:00,
2013-06-05 14:50:00,77.4,46.0,30.10,SE,126,2.7,4.0,33,0.00,,,0.00,VWS V14.01,2013-06-05 18:50:00,
2013-06-05 14:54:00,77.4,46.0,30.10,SSW,195,4.9,5.8,33,0.00,,,0.00,VWS V14.01,2013-06-05 18:54:00,
2013-06-05 14:55:00,77.4,46.0,30.10,SSW,195,3.1,5.8,33,0.00,,,0.00,VWS V14.01,2013-06-05 18:55:00,
2013-06-05 14:59:00,77.4,45.2,30.10,South,176,3.6,5.4,32,0.00,,,0.00,VWS V14.01,2013-06-05 18:59:00,
2013-06-05 15:00:00,77.5,45.4,30.10,South,176,0.0,5.4,32,0.00,,,0.00,VWS V14.01,2013-06-05 19:00:00,
2013-06-05 15:04:00,78.4,46.2,30.10,South,171,0.0,3.6,32,0.00,,,0.00,VWS V14.01,2013-06-05 19:04:00,
2013-06-05 15:05:00,78.6,46.3,30.10,South,171,3.6,3.6,32,0.00,,,0.00,VWS V14.01,2013-06-05 19:05:00,
2013-06-05 15:09:00,78.8,46.5,30.10,West,271,2.7,4.9,32,0.00,,,0.00,VWS V14.01,2013-06-05 19:09:00,
2013-06-05 15:10:00,78.6,46.3,30.10,West,270,2.7,4.9,32,0.00,,,0.00,VWS V14.01,2013-06-05 19:10:00,
2013-06-05 15:14:00,77.9,45.7,30.10,WSW,248,3.1,4.0,32,0.00,,,0.00,VWS V14.01,2013-06-05 19:14:00,
2013-06-05 15:15:00,77.9,45.7,30.10,WSW,248,2.2,4.0,32,0.00,,,0.00,VWS V14.01,2013-06-05 19:15:00,
2013-06-05 15:19:00,78.4,46.2,30.10,WSW,243,2.2,6.3,32,0.00,,,0.00,VWS V14.01,2013-06-05 19:19:00,
2013-06-05 15:20:00,78.4,46.2,30.10,South,170,4.0,6.3,32,0.00,,,0.00,VWS V14.01,2013-06-05 19:20:00,
2013-06-05 15:24:00,78.8,46.5,30.10,SE,144,6.3,6.3,32,0.00,,,0.00,VWS V14.01,2013-06-05 19:24:00,
2013-06-05 15:25:00,78.8,46.5,30.10,SSE,164,5.4,6.3,32,0.00,,,0.00,VWS V14.01,2013-06-05 19:25:00,
2013-06-05 15:29:00,78.1,45.8,30.10,SSE,158,4.9,8.1,32,0.00,,,0.00,VWS V14.01,2013-06-05 19:29:00,
2013-06-05 15:30:00,78.1,45.8,30.10,SSE,158,3.1,8.1,32,0.00,,,0.00,VWS V14.01,2013-06-05 19:30:00,
2013-06-05 15:34:00,77.7,45.5,30.10,SSE,160,3.1,4.0,32,0.00,,,0.00,VWS V14.01,2013-06-05 19:34:00,
2013-06-05 15:35:00,77.7,45.5,30.10,SSE,160,3.6,4.0,32,0.00,,,0.00,VWS V14.01,2013-06-05 19:35:00,
2013-06-05 15:39:00,77.9,45.7,30.10,SE,125,3.6,5.4,32,0.00,,,0.00,VWS V14.01,2013-06-05 19:39:00,
2013-06-05 15:40:00,77.5,45.4,30.10,SE,127,5.8,5.8,32,0.00,,,0.00,VWS V14.01,2013-06-05 19:40:00,
2013-06-05 15:44:00,76.8,44.8,30.10,South,169,2.7,6.3,32,0.00,,,0.00,VWS V14.01,2013-06-05 19:44:00,
2013-06-05 15:45:00,76.6,44.6,30.10,South,169,2.2,6.3,32,0.00,,,0.00,VWS V14.01,2013-06-05 19:45:00,
2013-06-05 15:49:00,76.8,44.8,30.10,South,182,4.9,4.9,32,0.00,,,0.00,VWS V14.01,2013-06-05 19:49:00,
2013-06-05 15:50:00,76.8,44.8,30.10,South,182,3.6,4.9,32,0.00,,,0.00,VWS V14.01,2013-06-05 19:50:00,
2013-06-05 15:54:00,76.3,44.3,30.10,SE,126,3.6,6.3,32,0.00,,,0.00,VWS V14.01,2013-06-05 19:54:00,
2013-06-05 15:55:00,76.3,44.3,30.10,SE,126,3.6,6.3,32,0.00,,,0.00,VWS V14.01,2013-06-05 19:55:00,
2013-06-05 15:59:00,75.9,44.0,30.10,SE,146,5.8,7.6,32,0.00,,,0.00,VWS V14.01,2013-06-05 19:59:00,
2013-06-05 16:00:00,75.7,43.8,30.10,SSE,157,8.3,8.3,32,0.00,,,0.00,VWS V14.01,2013-06-05 20:00:00,
2013-06-05 16:04:00,75.6,43.7,30.10,South,185,2.7,8.3,32,0.00,,,0.00,VWS V14.01,2013-06-05 20:04:00,
2013-06-05 16:05:00,75.6,43.7,30.10,South,176,4.9,8.3,32,0.00,,,0.00,VWS V14.01,2013-06-05 20:05:00,
2013-06-05 16:09:00,75.4,43.5,30.10,South,177,4.9,6.7,32,0.00,,,0.00,VWS V14.01,2013-06-05 20:09:00,
2013-06-05 16:10:00,75.4,43.5,30.10,SSE,165,5.4,6.7,32,0.00,,,0.00,VWS V14.01,2013-06-05 20:10:00,
2013-06-05 16:14:00,75.2,43.3,30.10,SSE,160,4.9,6.7,32,0.00,,,0.00,VWS V14.01,2013-06-05 20:14:00,
2013-06-05 16:15:00,75.2,43.3,30.10,SSE,160,4.9,6.7,32,0.00,,,0.00,VWS V14.01,2013-06-05 20:15:00,
2013-06-05 16:19:00,75.0,44.0,30.10,South,185,2.7,6.3,33,0.00,,,0.00,VWS V14.01,2013-06-05 20:19:00,
2013-06-05 16:20:00,75.0,44.0,30.10,South,185,2.7,6.3,33,0.00,,,0.00,VWS V14.01,2013-06-05 20:20:00,
2013-06-05 16:24:00,75.4,43.5,30.10,South,180,3.1,6.3,32,0.00,,,0.00,VWS V14.01,2013-06-05 20:24:00,
2013-06-05 16:25:00,75.4,43.5,30.10,South,180,3.1,6.3,32,0.00,,,0.00,VWS V14.01,2013-06-05 20:25:00,
2013-06-05 16:29:00,75.7,43.8,30.10,South,169,0.0,5.4,32,0.00,,,0.00,VWS V14.01,2013-06-05 20:29:00,
2013-06-05 16:30:00,75.7,43.8,30.10,South,169,0.0,5.4,32,0.00,,,0.00,VWS V14.01,2013-06-05 20:30:00,
2013-06-05 16:34:00,75.9,44.0,30.10,SE,126,2.7,6.3,32,0.00,,,0.00,VWS V14.01,2013-06-05 20:34:00,
2013-06-05 16:35:00,75.9,44.0,30.10,SE,126,2.7,6.3,32,0.00,,,0.00,VWS V14.01,2013-06-05 20:35:00,
2013-06-05 16:39:00,75.9,44.0,30.10,SSE,156,4.9,4.9,32,0.00,,,0.00,VWS V14.01,2013-06-05 20:39:00,
2013-06-05 16:40:00,75.9,44.0,30.10,SSE,156,4.9,4.9,32,0.00,,,0.00,VWS V14.01,2013-06-05 20:40:00,
2013-06-05 16:45:00,75.6,43.7,30.10,SE,129,4.0,4.0,32,0.00,,,0.00,VWS V14.01,2013-06-05 20:45:00,
2013-06-05 16:50:00,75.0,43.2,30.10,SSE,150,3.6,3.6,32,0.00,,,0.00,VWS V14.01,2013-06-05 20:50:00,
2013-06-05 16:55:00,74.8,43.8,30.10,SSE,166,5.4,5.4,33,0.00,,,0.00,VWS V14.01,2013-06-05 20:55:00,
2013-06-05 17:00:00,74.8,43.8,30.10,SSE,160,5.8,6.3,33,0.00,,,0.00,VWS V14.01,2013-06-05 21:00:00,
2013-06-05 17:05:00,74.5,43.5,30.10,South,175,3.1,3.1,33,0.00,,,0.00,VWS V14.01,2013-06-05 21:05:00,
2013-06-05 17:10:00,73.9,42.2,30.10,SSE,154,3.1,3.1,32,0.00,,,0.00,VWS V14.01,2013-06-05 21:10:00,
2013-06-05 17:15:00,73.9,43.0,30.10,SSE,157,3.6,3.6,33,0.00,,,0.00,VWS V14.01,2013-06-05 21:15:00,
2013-06-05 17:20:00,73.8,42.9,30.10,SSW,192,2.2,2.7,33,0.00,,,0.00,VWS V14.01,2013-06-05 21:20:00,
2013-06-05 17:25:00,73.6,42.7,30.10,SSE,149,2.7,3.1,33,0.00,,,0.00,VWS V14.01,2013-06-05 21:25:00,
2013-06-05 17:30:00,73.4,42.6,30.10,SSE,162,3.6,5.4,33,0.00,,,0.00,VWS V14.01,2013-06-05 21:30:00,
2013-06-05 17:35:00,73.2,42.4,30.10,SSE,159,2.7,2.7,33,0.00,,,0.00,VWS V14.01,2013-06-05 21:35:00,
2013-06-05 17:40:00,73.0,42.3,30.10,SSE,159,3.6,4.0,33,0.00,,,0.00,VWS V14.01,2013-06-05 21:40:00,
2013-06-05 17:45:00,72.9,42.9,30.10,SSE,159,0.0,4.0,34,0.00,,,0.00,VWS V14.01,2013-06-05 21:45:00,
2013-06-05 17:46:00,72.9,42.9,30.10,SSE,166,3.6,4.0,34,0.00,,,0.00,VWS V14.01,2013-06-05 21:46:00,
2013-06-05 17:50:00,72.5,42.6,30.10,SE,146,4.9,5.4,34,0.00,,,0.00,VWS V14.01,2013-06-05 21:50:00,
2013-06-05 17:51:00,72.5,42.6,30.10,SSE,155,4.0,5.8,34,0.00,,,0.00,VWS V14.01,2013-06-05 21:51:00,
2013-06-05 17:55:00,72.3,42.4,30.10,West,264,2.7,5.8,34,0.00,,,0.00,VWS V14.01,2013-06-05 21:55:00,
2013-06-05 17:56:00,72.3,42.4,30.10,SSW,210,3.1,5.8,34,0.00,,,0.00,VWS V14.01,2013-06-05 21:56:00,
2013-06-05 18:00:00,72.3,42.4,30.10,South,191,3.6,5.8,34,0.00,,,0.00,VWS V14.01,2013-06-05 22:00:00,
2013-06-05 18:01:00,72.1,42.2,30.10,SSE,167,4.0,4.0,34,0.00,,,0.00,VWS V14.01,2013-06-05 22:01:00,
2013-06-05 18:05:00,72.0,42.1,30.10,SSE,158,4.0,4.9,34,0.00,,,0.00,VWS V14.01,2013-06-05 22:05:00,
2013-06-05 18:06:00,71.8,41.9,30.10,South,177,4.0,5.4,34,0.00,,,0.00,VWS V14.01,2013-06-05 22:06:00,
2013-06-05 18:10:00,71.6,41.8,30.10,SSE,168,3.1,5.4,34,0.00,,,0.00,VWS V14.01,2013-06-05 22:10:00,
2013-06-05 18:11:00,71.4,41.6,30.10,SSE,165,4.9,6.3,34,0.00,,,0.00,VWS V14.01,2013-06-05 22:11:00,
2013-06-05 18:15:00,71.2,41.5,30.10,South,191,3.1,6.3,34,0.00,,,0.00,VWS V14.01,2013-06-05 22:15:00,
2013-06-05 18:17:00,71.2,41.5,30.10,South,191,3.1,4.0,34,0.00,,,0.00,VWS V14.01,2013-06-05 22:17:00,
2013-06-05 18:20:00,71.1,41.3,30.10,South,187,3.1,5.4,34,0.00,,,0.00,VWS V14.01,2013-06-05 22:20:00,
2013-06-05 18:22:00,70.9,41.1,30.10,SSE,160,2.7,5.4,34,0.00,,,0.00,VWS V14.01,2013-06-05 22:22:00,
2013-06-05 18:25:00,70.9,41.1,30.10,South,170,4.9,5.4,34,0.00,,,0.00,VWS V14.01,2013-06-05 22:25:00,
2013-06-05 18:27:00,70.9,41.1,30.10,SSE,168,3.1,4.9,34,0.00,,,0.00,VWS V14.01,2013-06-05 22:27:00,
2013-06-05 18:30:00,70.7,41.7,30.10,South,172,3.1,5.4,35,0.00,,,0.00,VWS V14.01,2013-06-05 22:30:00,
2013-06-05 18:32:00,70.7,41.7,30.10,SSE,166,4.0,4.0,35,0.00,,,0.00,VWS V14.01,2013-06-05 22:32:00,
2013-06-05 18:35:00,70.5,41.6,30.10,South,177,4.0,6.3,35,0.00,,,0.00,VWS V14.01,2013-06-05 22:35:00,
2013-06-05 18:38:00,70.3,40.7,30.10,SSE,150,3.6,8.1,34,0.00,,,0.00,VWS V14.01,2013-06-05 22:38:00,
2013-06-05 18:40:00,70.2,40.5,30.10,SSE,161,4.9,8.1,34,0.00,,,0.00,VWS V14.01,2013-06-05 22:40:00,
2013-06-05 18:43:00,70.0,41.1,30.10,SSE,160,4.0,5.4,35,0.00,,,0.00,VWS V14.01,2013-06-05 22:43:00,
2013-06-05 18:45:00,70.0,41.1,30.10,SSE,149,0.0,6.3,35,0.00,,,0.00,VWS V14.01,2013-06-05 22:45:00,
2013-06-05 18:48:00,69.8,40.9,30.10,SSE,157,5.4,5.8,35,0.00,,,0.00,VWS V14.01,2013-06-05 22:48:00,
2013-06-05 18:50:00,69.8,40.9,30.10,SSE,158,2.7,6.3,35,0.00,,,0.00,VWS V14.01,2013-06-05 22:50:00,
2013-06-05 18:53:00,69.6,40.8,30.10,SSE,163,5.4,5.4,35,0.00,,,0.00,VWS V14.01,2013-06-05 22:53:00,
2013-06-05 18:55:00,69.4,40.6,30.10,South,170,3.6,6.3,35,0.00,,,0.00,VWS V14.01,2013-06-05 22:55:00,
2013-06-05 18:58:00,69.4,40.6,30.10,SE,145,4.0,5.4,35,0.00,,,0.00,VWS V14.01,2013-06-05 22:58:00,
2013-06-05 19:00:00,69.3,40.5,30.10,SSE,147,3.1,5.4,35,0.00,,,0.00,VWS V14.01,2013-06-05 23:00:00,
2013-06-05 19:03:00,69.3,41.2,30.10,SSE,147,4.0,4.0,36,0.00,,,0.00,VWS V14.01,2013-06-05 23:03:00,
2013-06-05 19:05:00,69.3,41.2,30.10,SSE,147,3.6,4.0,36,0.00,,,0.00,VWS V14.01,2013-06-05 23:05:00,
2013-06-05 19:08:00,69.1,41.0,30.10,South,180,5.8,5.8,36,0.00,,,0.00,VWS V14.01,2013-06-05 23:08:00,
2013-06-05 19:10:00,68.9,40.9,30.10,South,180,3.1,5.8,36,0.00,,,0.00,VWS V14.01,2013-06-05 23:10:00,
2013-06-05 19:13:00,68.9,40.9,30.10,South,178,2.2,3.6,36,0.00,,,0.00,VWS V14.01,2013-06-05 23:13:00,
2013-06-05 19:15:00,68.7,40.7,30.10,South,178,0.0,3.6,36,0.00,,,0.00,VWS V14.01,2013-06-05 23:15:00,
2013-06-05 19:18:00,68.5,40.5,30.10,SSW,195,2.7,5.4,36,0.00,,,0.00,VWS V14.01,2013-06-05 23:18:00,
2013-06-05 19:20:00,68.5,40.5,30.10,South,184,2.7,5.4,36,0.00,,,0.00,VWS V14.01,2013-06-05 23:20:00,
2013-06-05 19:23:00,68.4,41.1,30.10,South,184,2.7,3.1,37,0.00,,,0.00,VWS V14.01,2013-06-05 23:23:00,
2013-06-05 19:25:00,68.4,41.1,30.10,South,184,0.0,3.1,37,0.00,,,0.00,VWS V14.01,2013-06-05 23:25:00,
2013-06-05 19:28:00,68.0,40.8,30.10,SSE,166,0.0,4.0,37,0.00,,,0.00,VWS V14.01,2013-06-05 23:28:00,
2013-06-05 19:30:00,68.0,40.8,30.10,SSE,166,0.0,4.0,37,0.00,,,0.00,VWS V14.01,2013-06-05 23:30:00,
2013-06-05 19:33:00,67.8,41.3,30.10,SSE,166,0.0,2.7,38,0.00,,,0.00,VWS V14.01,2013-06-05 23:33:00,
2013-06-05 19:35:00,67.8,41.3,30.10,SSE,166,0.0,2.7,38,0.00,,,0.00,VWS V14.01,2013-06-05 23:35:00,
2013-06-05 19:38:00,67.6,41.8,30.10,SSE,166,2.7,2.7,39,0.00,,,0.00,VWS V14.01,2013-06-05 23:38:00,
2013-06-05 19:40:00,67.5,41.7,30.10,South,169,3.1,4.0,39,0.00,,,0.00,VWS V14.01,2013-06-05 23:40:00,
2013-06-05 19:43:00,67.5,41.7,30.10,SSE,158,0.0,3.6,39,0.00,,,0.00,VWS V14.01,2013-06-05 23:43:00,
2013-06-05 19:45:00,67.3,41.5,30.10,SSE,158,0.0,3.6,39,0.00,,,0.00,VWS V14.01,2013-06-05 23:45:00,
2013-06-05 19:49:00,67.1,42.0,30.10,SSE,158,2.2,2.2,40,0.00,,,0.00,VWS V14.01,2013-06-05 23:49:00,
2013-06-05 19:50:00,67.1,42.0,30.10,SSE,158,2.7,2.7,40,0.00,,,0.00,VWS V14.01,2013-06-05 23:50:00,
2013-06-05 19:54:00,66.9,41.8,30.10,SSE,158,2.7,3.6,40,0.00,,,0.00,VWS V14.01,2013-06-05 23:54:00,
2013-06-05 19:55:00,66.9,41.8,30.10,SSE,158,2.7,3.6,40,0.00,,,0.00,VWS V14.01,2013-06-05 23:55:00,
2013-06-05 19:59:00,66.6,42.2,30.10,South,171,2.7,4.0,41,0.00,,,0.00,VWS V14.01,2013-06-05 23:59:00,
2013-06-05 20:00:00,66.6,42.2,30.10,South,171,3.1,4.0,41,0.00,,,0.00,VWS V14.01,2013-06-06 00:00:00,
2013-06-05 20:04:00,66.4,42.0,30.10,South,171,2.7,3.1,41,0.00,,,0.00,VWS V14.01,2013-06-06 00:04:00,
2013-06-05 20:05:00,66.4,42.0,30.10,South,171,2.7,3.1,41,0.00,,,0.00,VWS V14.01,2013-06-06 00:05:00,
2013-06-05 20:09:00,66.2,41.8,30.10,South,171,0.0,2.7,41,0.00,,,0.00,VWS V14.01,2013-06-06 00:09:00,
2013-06-05 20:10:00,66.2,41.8,30.10,South,171,0.0,2.7,41,0.00,,,0.00,VWS V14.01,2013-06-06 00:10:00,
2013-06-05 20:14:00,65.8,42.1,30.10,South,171,0.0,0.0,42,0.00,,,0.00,VWS V14.01,2013-06-06 00:14:00,
2013-06-05 20:15:00,65.8,42.1,30.10,South,171,3.1,3.1,42,0.00,,,0.00,VWS V14.01,2013-06-06 00:15:00,
2013-06-05 20:19:00,65.7,42.6,30.10,South,175,0.0,4.0,43,0.00,,,0.00,VWS V14.01,2013-06-06 00:19:00,
2013-06-05 20:20:00,65.7,42.6,30.10,South,175,0.0,4.0,43,0.00,,,0.00,VWS V14.01,2013-06-06 00:20:00,
2013-06-05 20:24:00,65.5,42.4,30.10,South,175,0.0,0.0,43,0.00,,,0.00,VWS V14.01,2013-06-06 00:24:00,
2013-06-05 20:25:00,65.5,42.4,30.10,South,175,0.0,0.0,43,0.00,,,0.00,VWS V14.01,2013-06-06 00:25:00,
2013-06-05 20:29:00,65.1,42.1,30.10,South,175,0.0,2.7,43,0.00,,,0.00,VWS V14.01,2013-06-06 00:29:00,
2013-06-05 20:30:00,65.1,42.1,30.10,South,175,0.0,2.7,43,0.00,,,0.00,VWS V14.01,2013-06-06 00:30:00,
2013-06-05 20:34:00,64.9,41.9,30.10,South,175,0.0,0.0,43,0.00,,,0.00,VWS V14.01,2013-06-06 00:34:00,
2013-06-05 20:35:00,64.9,41.9,30.10,South,175,0.0,0.0,43,0.00,,,0.00,VWS V14.01,2013-06-06 00:35:00,
2013-06-05 20:39:00,64.6,41.6,30.10,South,175,0.0,0.0,43,0.00,,,0.00,VWS V14.01,2013-06-06 00:39:00,
2013-06-05 20:40:00,64.6,41.6,30.10,South,175,0.0,0.0,43,0.00,,,0.00,VWS V14.01,2013-06-06 00:40:00,
2013-06-05 20:44:00,64.2,41.9,30.10,South,175,0.0,0.0,44,0.00,,,0.00,VWS V14.01,2013-06-06 00:44:00,
2013-06-05 20:45:00,64.2,41.9,30.10,South,175,0.0,0.0,44,0.00,,,0.00,VWS V14.01,2013-06-06 00:45:00,
2013-06-05 20:49:00,63.9,42.1,30.10,South,175,2.7,4.0,45,0.00,,,0.00,VWS V14.01,2013-06-06 00:49:00,
2013-06-05 20:50:00,63.9,42.1,30.10,South,175,2.7,4.0,45,0.00,,,0.00,VWS V14.01,2013-06-06 00:50:00,
2013-06-05 20:54:00,63.9,42.1,30.10,South,175,0.0,0.0,45,0.00,,,0.00,VWS V14.01,2013-06-06 00:54:00,
2013-06-05 20:55:00,63.9,42.1,30.10,South,175,0.0,3.1,45,0.00,,,0.00,VWS V14.01,2013-06-06 00:55:00,
2013-06-05 20:59:00,63.7,42.0,30.10,South,175,2.2,2.7,45,0.00,,,0.00,VWS V14.01,2013-06-06 00:59:00,
2013-06-05 21:00:00,63.7,42.0,30.10,South,175,2.7,3.6,45,0.00,,,0.00,VWS V14.01,2013-06-06 01:00:00,
2013-06-05 21:04:00,63.5,41.8,30.10,South,175,0.0,0.0,45,0.00,,,0.00,VWS V14.01,2013-06-06 01:04:00,
2013-06-05 21:05:00,63.5,41.8,30.10,South,175,0.0,2.7,45,0.00,,,0.00,VWS V14.01,2013-06-06 01:05:00,
2013-06-05 21:09:00,63.3,41.6,30.10,South,175,0.0,2.7,45,0.00,,,0.00,VWS V14.01,2013-06-06 01:09:00,
2013-06-05 21:10:00,63.3,41.6,30.10,South,175,0.0,2.7,45,0.00,,,0.00,VWS V14.01,2013-06-06 01:10:00,
2013-06-05 21:14:00,63.0,41.3,30.10,South,175,3.1,3.1,45,0.00,,,0.00,VWS V14.01,2013-06-06 01:14:00,
2013-06-05 21:15:00,63.0,41.3,30.10,South,175,3.1,3.1,45,0.00,,,0.00,VWS V14.01,2013-06-06 01:15:00,
2013-06-05 21:19:00,62.8,41.2,30.10,South,175,0.0,0.0,45,0.00,,,0.00,VWS V14.01,2013-06-06 01:19:00,
2013-06-05 21:20:00,62.8,41.2,30.10,South,175,0.0,3.1,45,0.00,,,0.00,VWS V14.01,2013-06-06 01:20:00,
2013-06-05 21:24:00,62.6,41.0,30.10,South,175,0.0,0.0,45,0.00,,,0.00,VWS V14.01,2013-06-06 01:24:00,
2013-06-05 21:25:00,62.6,41.0,30.10,South,175,0.0,0.0,45,0.00,,,0.00,VWS V14.01,2013-06-06 01:25:00,
2013-06-05 21:30:00,62.2,41.2,30.10,South,178,0.0,0.0,46,0.00,,,0.00,VWS V14.01,2013-06-06 01:30:00,
2013-06-05 21:35:00,62.1,41.1,30.10,South,177,2.2,3.1,46,0.00,,,0.00,VWS V14.01,2013-06-06 01:35:00,
2013-06-05 21:40:00,61.9,41.5,30.10,South,177,0.0,0.0,47,0.00,,,0.00,VWS V14.01,2013-06-06 01:40:00,
2013-06-05 21:45:00,61.7,41.3,30.10,SSE,165,4.0,4.0,47,0.00,,,0.00,VWS V14.01,2013-06-06 01:45:00,
2013-06-05 21:50:00,61.5,41.1,30.10,SSE,165,3.1,3.6,47,0.00,,,0.00,VWS V14.01,2013-06-06 01:50:00,
2013-06-05 21:55:00,61.3,41.0,30.10,SSW,193,2.7,3.6,47,0.00,,,0.00,VWS V14.01,2013-06-06 01:55:00,
2013-06-05 22:00:00,61.2,40.8,30.10,SSE,161,0.0,0.0,47,0.00,,,0.00,VWS V14.01,2013-06-06 02:00:00,
2013-06-05 22:05:00,61.0,40.6,30.10,SSW,205,0.0,2.7,47,0.00,,,0.00,VWS V14.01,2013-06-06 02:05:00,
2013-06-05 22:10:00,60.8,41.0,30.10,SSW,205,0.0,0.0,48,0.00,,,0.00,VWS V14.01,2013-06-06 02:10:00,
2013-06-05 22:15:00,60.6,40.8,30.10,SW,214,2.2,2.2,48,0.00,,,0.00,VWS V14.01,2013-06-06 02:15:00,
2013-06-05 22:20:00,60.6,41.4,30.10,SSW,203,3.1,3.1,49,0.00,,,0.00,VWS V14.01,2013-06-06 02:20:00,
2013-06-05 22:25:00,60.4,41.2,30.10,West,274,0.0,0.0,49,0.00,,,0.00,VWS V14.01,2013-06-06 02:25:00,
2013-06-05 22:30:00,60.4,41.2,30.13,West,273,0.0,2.2,49,0.00,,,0.00,VWS V14.01,2013-06-06 02:30:00,
2013-06-05 22:35:00,60.1,40.9,30.13,West,273,0.0,0.0,49,0.00,,,0.00,VWS V14.01,2013-06-06 02:35:00,
2013-06-05 22:40:00,59.9,41.2,30.13,South,172,2.7,3.6,50,0.00,,,0.00,VWS V14.01,2013-06-06 02:40:00,
2013-06-05 22:45:00,59.7,41.1,30.10,SSE,168,3.1,3.1,50,0.00,,,0.00,VWS V14.01,2013-06-06 02:45:00,
2013-06-05 22:50:00,59.7,41.6,30.10,SSE,164,2.2,4.0,51,0.00,,,0.00,VWS V14.01,2013-06-06 02:50:00,
2013-06-05 22:55:00,59.5,41.4,30.10,SSE,163,3.6,4.9,51,0.00,,,0.00,VWS V14.01,2013-06-06 02:55:00,
2013-06-05 23:00:00,59.5,41.9,30.10,SSE,166,3.6,4.9,52,0.00,,,0.00,VWS V14.01,2013-06-06 03:00:00,
2013-06-05 23:01:00,59.5,41.9,30.10,South,176,4.0,4.0,52,0.00,,,0.00,VWS V14.01,2013-06-06 03:01:00,
2013-06-05 23:05:00,59.4,41.8,30.10,SSE,164,4.9,4.9,52,0.00,,,0.00,VWS V14.01,2013-06-06 03:05:00,
2013-06-05 23:06:00,59.4,42.2,30.10,SSW,197,2.7,4.9,53,0.00,,,0.00,VWS V14.01,2013-06-06 03:06:00,
2013-06-05 23:10:00,59.4,42.2,30.10,SSW,202,2.7,4.9,53,0.00,,,0.00,VWS V14.01,2013-06-06 03:10:00,
2013-06-05 23:11:00,59.4,42.2,30.10,SSW,202,2.2,3.1,53,0.00,,,0.00,VWS V14.01,2013-06-06 03:11:00,
2013-06-05 23:15:00,59.2,42.6,30.10,SSW,201,2.7,3.1,54,0.00,,,0.00,VWS V14.01,2013-06-06 03:15:00,
2013-06-05 23:16:00,59.2,42.6,30.10,SSW,201,3.1,3.1,54,0.00,,,0.00,VWS V14.01,2013-06-06 03:16:00,
2013-06-05 23:20:00,59.2,42.6,30.10,SSW,207,2.7,3.1,54,0.00,,,0.00,VWS V14.01,2013-06-06 03:20:00,
2013-06-05 23:22:00,59.2,43.0,30.10,SW,229,2.2,3.1,55,0.00,,,0.00,VWS V14.01,2013-06-06 03:22:00,
2013-06-05 23:25:00,59.2,43.0,30.10,SW,229,2.2,3.1,55,0.00,,,0.00,VWS V14.01,2013-06-06 03:25:00,
2013-06-05 23:27:00,59.2,43.0,30.10,SW,229,0.0,3.6,55,0.00,,,0.00,VWS V14.01,2013-06-06 03:27:00,
2013-06-05 23:30:00,59.0,42.9,30.10,South,190,2.2,3.6,55,0.00,,,0.00,VWS V14.01,2013-06-06 03:30:00,
2013-06-05 23:32:00,59.0,43.3,30.10,South,190,0.0,2.7,56,0.00,,,0.00,VWS V14.01,2013-06-06 03:32:00,
2013-06-05 23:35:00,59.0,43.3,30.10,West,261,0.0,4.0,56,0.00,,,0.00,VWS V14.01,2013-06-06 03:35:00,
2013-06-05 23:37:00,59.0,43.3,30.10,WSW,254,2.7,3.1,56,0.00,,,0.00,VWS V14.01,2013-06-06 03:37:00,
2013-06-05 23:40:00,58.8,43.2,30.10,WSW,254,0.0,3.1,56,0.00,,,0.00,VWS V14.01,2013-06-06 03:40:00,
2013-06-05 23:42:00,58.8,43.6,30.10,WSW,254,2.2,2.7,57,0.00,,,0.00,VWS V14.01,2013-06-06 03:42:00,
2013-06-05 23:45:00,58.8,43.6,30.10,WSW,254,2.2,3.1,57,0.00,,,0.00,VWS V14.01,2013-06-06 03:45:00,
2013-06-05 23:47:00,58.8,43.6,30.10,WSW,255,3.6,4.0,57,0.00,,,0.00,VWS V14.01,2013-06-06 03:47:00,
2013-06-05 23:50:00,58.8,43.6,30.10,WSW,255,0.0,4.0,57,0.00,,,0.00,VWS V14.01,2013-06-06 03:50:00,
2013-06-05 23:52:00,58.8,43.6,30.10,WSW,250,0.0,3.1,57,0.00,,,0.00,VWS V14.01,2013-06-06 03:52:00,
2013-06-05 23:55:00,58.6,43.5,30.10,WSW,250,0.0,3.1,57,0.00,,,0.00,VWS V14.01,2013-06-06 03:55:00,
2013-06-05 23:57:00,58.6,43.5,30.10,WSW,250,0.0,0.0,57,0.00,,,0.00,VWS V14.01,2013-06-06 03:57:00,